Location: Vancouver
(49.2500°N, 123.1330°W)
Time: 10:21:38
(UTC-07:00)

Iridium 35 - Visible Passes

Search period start: 26 June 2016 00:00
Search period end: 06 July 2016 00:00
Orbit: 776 x 779 km, 86.4° (Epoch: 26 June)

Date Brightness Start Highest point End Pass type
(mag) Time Alt. Az. Time Alt. Az. Time Alt. Az.
26 Jun 5.7 01:05:48 10° N 01:10:51 46° E 01:13:48 23° SE visible
26 Jun 6.4 02:47:02 10° NNW 02:51:19 26° W 02:54:15 16° SW visible
27 Jun 6.4 00:32:36 10° NNE 00:37:06 28° ENE 00:40:16 16° ESE visible
27 Jun 5.6 02:13:03 10° NNW 02:18:01 44° W 02:20:44 24° SW visible
27 Jun 7.1 23:59:48 10° NNE 00:03:12 17° ENE 00:06:36 10° ESE visible
28 Jun 5.0 01:39:21 10° N 01:44:34 76° W 01:47:13 30° S visible
28 Jun 7.2 03:22:43 10° NW 03:24:21 11° WNW 03:25:58 10° W visible
28 Jun 7.5 23:28:47 10° ENE 23:29:10 10° ENE 23:29:32 10° ENE visible
29 Jun 5.2 01:05:49 10° N 01:11:01 64° E 01:13:42 28° SSE visible
29 Jun 6.8 02:47:34 10° NNW 02:51:13 20° WNW 02:54:10 13° WSW visible
30 Jun 6.0 00:32:28 10° N 00:37:20 38° ENE 00:40:11 21° SE visible
30 Jun 6.1 02:13:23 10° NNW 02:17:59 32° W 02:20:39 20° SW visible
30 Jun 6.7 23:59:24 10° NNE 00:03:32 23° ENE 00:06:41 14° ESE visible
01 Jul 5.4 01:39:31 10° NNW 01:44:38 55° W 01:47:09 28° SSW visible
01 Jul 7.2 23:26:52 10° NE 23:29:35 14° ENE 23:32:18 10° E visible
02 Jul 5.0 01:05:53 10° N 01:11:09 88° E 01:13:40 32° S visible
02 Jul 7.1 02:48:24 10° NW 02:51:05 14° WNW 02:53:46 10° WSW visible
03 Jul 5.5 00:32:25 10° N 00:37:33 52° E 00:40:10 27° SE visible
03 Jul 6.6 02:13:49 10° NNW 02:17:54 24° W 02:20:38 16° WSW visible
03 Jul 6.2 23:59:10 10° NNE 00:03:49 31° ENE 00:06:41 19° SE visible
04 Jul 5.9 01:39:47 10° NNW 01:44:38 40° W 01:47:09 24° SW visible
04 Jul 6.8 23:26:15 10° NNE 23:29:57 19° ENE 23:33:13 11° ESE visible
05 Jul 5.1 01:06:01 10° N 01:11:13 68° W 01:13:41 31° SSW visible
05 Jul 7.4 02:50:33 10° WNW 02:50:53 10° WNW 02:51:15 10° WNW visible
05 Jul 7.3 22:54:17 10° NE 22:55:56 11° ENE 22:57:36 10° E visible
